TimeEEST,TemperatureF,Dew PointF,Humidity,Sea Level PressureIn,VisibilityMPH,Wind Direction,Wind SpeedMPH,Gust SpeedMPH,PrecipitationIn,Events,Conditions,WindDirDegrees,DateUTC
12:50 AM,44.6,37.4,76,30.06,6.2,ENE,10.4,-,N/A,,Partly Cloudy,70,2013-09-28 21:50:00
1:50 AM,42.8,37.4,81,30.06,-9999.0,ESE,8.1,-,N/A,,Clear,120,2013-09-28 22:50:00
2:50 AM,41.0,35.6,81,30.06,-9999.0,ESE,5.8,-,N/A,,Clear,110,2013-09-28 23:50:00
3:00 AM,40,36,78,,6,ESE,5.8,,,,,110,2013-09-29 00:00:00
3:50 AM,39.2,35.6,87,30.06,-9999.0,Calm,Calm,-,N/A,,Clear,0,2013-09-29 00:50:00
4:50 AM,35.6,35.6,100,30.06,-9999.0,Calm,Calm,-,N/A,,Clear,0,2013-09-29 01:50:00
5:50 AM,35.6,33.8,93,30.06,-9999.0,Calm,Calm,-,N/A,,Clear,0,2013-09-29 02:50:00
6:50 AM,35.6,30.2,81,30.04,6.2,WNW,1.2,-,N/A,,Partly Cloudy,290,2013-09-29 03:50:00
7:50 AM,46.4,37.4,71,30.09,-9999.0,Calm,Calm,-,N/A,,Clear,0,2013-09-29 04:50:00
8:50 AM,51.8,35.6,54,30.09,6.2,Variable,1.2,-,N/A,,Partly Cloudy,0,2013-09-29 05:50:00
9:00 AM,52,36,44,,6,West,1.2,,,,Scattered Clouds,260,2013-09-29 06:00:00
9:50 AM,57.2,32.0,38,30.09,6.2,SW,9.2,-,N/A,,Partly Cloudy,230,2013-09-29 06:50:00
10:50 AM,62.6,26.6,26,30.06,6.2,West,12.7,-,N/A,,Partly Cloudy,260,2013-09-29 07:50:00
11:50 AM,62.6,26.6,26,30.04,6.2,West,16.1,-,N/A,,Partly Cloudy,270,2013-09-29 08:50:00
12:50 PM,64.4,28.4,26,30.04,6.2,WNW,15.0,-,N/A,,Scattered Clouds,290,2013-09-29 09:50:00
1:50 PM,64.4,28.4,26,30.04,6.2,West,15.0,26.5,N/A,,Mostly Cloudy,270,2013-09-29 10:50:00
2:50 PM,62.6,28.4,27,30.01,6.2,West,11.5,-,N/A,,Mostly Cloudy,270,2013-09-29 11:50:00
3:00 PM,62,28,17,,6,West,11.5,,,,Mostly Cloudy,270,2013-09-29 12:00:00
3:50 PM,62.6,28.4,27,30.01,6.2,WNW,6.9,-,N/A,,Mostly Cloudy,300,2013-09-29 12:50:00
4:50 PM,62.6,28.4,27,30.01,6.2,Calm,Calm,-,N/A,,Mostly Cloudy,0,2013-09-29 13:50:00
5:50 PM,59.0,30.2,34,30.04,6.2,North,9.2,-,N/A,,Mostly Cloudy,360,2013-09-29 14:50:00
6:50 PM,55.4,33.8,44,30.06,6.2,Variable,4.6,-,N/A,,Scattered Clouds,0,2013-09-29 15:50:00
7:50 PM,50.0,33.8,54,30.06,6.2,East,8.1,-,N/A,,Scattered Clouds,80,2013-09-29 16:50:00
8:50 PM,46.4,33.8,62,30.06,-9999.0,East,6.9,-,N/A,,Clear,100,2013-09-29 17:50:00
9:00 PM,46,34,51,,6,East,6.9,,,,,100,2013-09-29 18:00:00
9:50 PM,46.4,33.8,62,30.09,6.2,ESE,9.2,-,N/A,,Partly Cloudy,110,2013-09-29 18:50:00
10:50 PM,41.0,33.8,76,30.09,6.2,ENE,6.9,-,N/A,,Partly Cloudy,70,2013-09-29 19:50:00
11:50 PM,42.8,33.8,70,30.09,6.2,ESE,9.2,-,N/A,,Partly Cloudy,120,2013-09-29 20:50:00